Location: Coupvray
(48.8929°N, 2.7967°E)
Time: 08:45:38
(UTC+00:00)

Cosmos 1066 Rocket - Pass Details

Date: 14 July 2020
Orbit: 799 x 894 km, 81.2° (Epoch: 14 August)

Event Time Altitude Azimuth Distance (km) Brightness Sun altitude
Rises 02:46:18 0° 345° (NNW) 3,513 7.9 -9.8°
Reaches altitude 10° 02:48:48 10° 341° (NNW) 2,573 7.2 -9.5°
Maximum altitude 02:54:32 57° 265° (W) 1,046 4.5 -8.9°
Drops below altitude 10° 03:00:13 10° 188° (S) 2,549 6.2 -8.3°
Enters shadow 03:02:14 - 185° (S) 3,310 6.8 -8.1°
